SL-16 DEB, 22374

Orbit data source: Space-Track

SL-16 DEB, 22374 is space debris in LEO originally from a launch on Fri, 25 Dec 1992 UTC launched from the Tyuratam Missile And Space Complex (TTMTR). Debris objects in space refer to the collection of defunct objects orbiting the Earth. Examples of debris include non-operational satellites, rocket bodies, and fragments generated from explosions, collisions, or faulty payload assembly.

Loading next visibility...
Identifier
22374, 1992-093BP
Orbit
LEO
Country
Flag of CISCIS
Related business
Manufacturer
Unknown
Mission
Spacecraft
Bus & Motor
Unknown
Mass
Unknown
Launch date (UTC)
1992-12-25 (33 years ago)
Launch vehicle
Unknown
Launch site
Tyuratam Missile And Space Complex (TTMTR)
Object type
Payload
Rocket body
Debris
Shape & HBR
Unknown shape, 0.1 m
Radar Cross Section
Small (<0.1 m²)

Expand to show TLE details & history
Last TLE update: 13 hours ago

TLE from 13 hours ago
0 SL-16 DEB
1 22374U 92093BP  26133.23362269  .00000599  00000-0  45896-3 0  9997
2 22374  70.7876 214.4507 0173470 187.5735 204.6101 13.90554358681862
Epoch: 2026-05-13T05:36Z
TLE epoch observation values (Epoch: 2026-05-13T05:36:25.000Z)
Latitude
29.50193°
Longitude
-89.33738°
Altitude
1,045.409 km
Speed
7.274 km/s
True Right ascension
15h 03m 03s
True Declination
29° 21' 38"
Sunlit
Object was in full shadow at epoch
Visualization orbit readout
Latitude
Unknown
Longitude
Unknown
Altitude
Unknown
Speed
Unknown
Apparent Right ascension
Unknown
Apparent Declination
Unknown
Sunlit
N/A
Visualization observer readout
Local Sidereal Time
02:56:56
Azimuth
Unknown
Elevation
Unknown
Doppler factor
Unknown
Orbital elements
Apogee altitude
1,051.339 km
Perigee altitude
797.976 km
Semi-major axis
7,302.795 km
Eccentricity
0.01735
Inclination
70.7876°
RAAN
214.4507°
Arg. of periapsis
187.5735°
True anomaly
203.79833°
Mean anomaly
204.6101°
Eccentric anomaly
204.20263°
Mean motion
3.47784 °/min
Orbital period
103.51 mins
BSTAR
0.00045896
Loading maneuver chart data...
Computing Atmospheric mass density...
Loading historical data...
Loading historical data...
Loading historical data...
Loading historical data...
Loading historical data...
Loading historical data...
Loading historical data...

Documentation

Showing up to 5 results
|